Date,TemperatureHighF,TemperatureAvgF,TemperatureLowF,DewpointHighF,DewpointAvgF,DewpointLowF,HumidityHigh,HumidityAvg,HumidityLow,PressureMaxIn,PressureMinIn,WindSpeedMaxMPH,WindSpeedAvgMPH,GustSpeedMaxMPH,PrecipitationSumIn
2013-3-1,42.8,37.8,33.9,35.4,31.7,29.0,93,79,59,29.73,29.55,14,4,14,0.00
2013-3-2,37.1,33.0,30.2,29.2,27.0,25.8,86,79,68,29.73,29.65,12,3,14,0.00
2013-3-3,33.3,29.4,26.5,26.0,23.5,21.0,85,78,65,29.68,29.61,16,5,17,0.00
2013-3-4,38.7,30.8,26.2,26.0,22.7,20.0,80,72,59,29.82,29.68,21,6,22,0.00
2013-3-5,44.7,37.7,28.5,30.3,27.6,23.0,81,68,51,30.02,29.83,18,3,19,0.00
2013-3-6,40.2,36.9,33.9,36.0,32.6,29.6,92,84,74,30.00,29.89,31,8,31,0.00
2013-3-7,35.5,32.8,30.9,32.2,30.4,28.0,97,91,80,30.03,29.89,27,8,27,0.00
2013-3-8,40.7,34.0,30.0,34.0,30.0,26.5,97,86,59,30.14,29.94,18,4,23,0.28
2013-3-9,53.4,40.9,30.8,31.0,24.9,13.1,84,57,21,30.32,30.14,15,3,17,0.13
2013-3-10,42.2,36.6,31.1,35.6,31.7,26.9,94,83,68,30.38,30.30,8,2,10,0.00
2013-3-11,49.1,42.2,34.3,45.0,40.0,33.0,98,92,80,30.32,30.11,13,3,13,0.00
2013-3-12,51.9,47.9,39.8,51.5,47.4,39.0,99,98,92,30.11,29.68,20,4,22,2.06
2013-3-13,48.1,41.1,34.4,38.0,29.1,23.0,94,64,42,29.83,29.75,16,4,16,0.00
2013-3-14,35.0,30.4,27.9,29.0,16.8,11.0,83,57,44,29.89,29.78,20,6,21,0.00
2013-3-15,41.6,33.5,24.3,31.1,20.9,11.0,81,60,39,29.92,29.70,18,4,18,0.00
2013-3-16,38.6,32.4,28.8,30.3,25.0,17.8,93,76,45,29.88,29.73,11,2,10,0.01
2013-3-17,35.9,30.6,24.6,28.4,15.0,9.0,91,54,35,30.30,29.88,18,4,18,0.00
2013-3-18,33.2,28.1,22.1,28.0,14.9,5.8,96,60,35,30.42,30.09,16,4,19,0.00
2013-3-19,35.9,33.2,28.9,35.4,32.5,28.0,98,97,96,30.08,29.64,15,4,17,0.45
2013-3-20,39.7,34.5,27.2,32.4,22.6,19.0,97,63,45,29.83,29.74,15,3,15,0.06
2013-3-21,36.4,31.3,28.0,27.1,22.8,13.0,90,72,50,29.82,29.61,12,2,12,0.01
2013-3-22,38.7,32.4,23.8,24.6,21.0,14.0,74,63,51,29.82,29.67,16,4,17,0.00
2013-3-23,44.1,35.7,30.3,27.4,22.3,17.0,75,59,36,29.87,29.72,17,6,20,0.00
2013-3-24,44.2,37.5,26.9,29.5,24.2,19.0,76,59,48,29.90,29.71,14,2,14,0.00
2013-3-25,42.7,38.0,32.3,31.0,28.5,25.8,86,69,58,29.74,29.43,21,5,22,0.00
2013-3-26,48.1,40.4,35.2,32.9,27.2,22.0,79,61,41,29.82,29.55,14,3,16,0.00
2013-3-27,51.4,42.9,32.3,29.5,25.5,21.0,69,51,32,29.91,29.80,21,4,21,0.00
2013-3-28,48.2,42.1,36.4,38.0,32.7,27.1,85,70,56,30.06,29.89,9,4,14,0.00
2013-3-29,57.6,47.1,37.7,34.0,30.4,27.0,74,54,34,30.09,30.00,16,4,16,0.00
2013-3-30,56.7,46.7,35.3,34.4,25.8,20.0,80,47,27,30.11,30.03,12,3,16,0.00
2013-3-31,54.6,46.9,40.6,42.0,32.3,20.0,96,59,37,30.11,29.64,23,3,23,0.22